[[[{"header":{"parameterUnit":"kt","parameterCategory":2,"dx":1,"dy":1,"la1":30.253999710083008,"la2":30.299108505249023,"lo1":-89.0895004272461,"lo2":-89.04439544677734,"nx":28,"ny":28,"refTime":"2022-10-17T21:00:00:Z","depth":"0","parameterNumber":2,"parameterNumberName":"U-component_of_CURRENTS"},"data":[-0.2033,-0.201,-0.2004,-0.1964,-0.1971,-0.1933,-0.195,-0.1964,-0.2003,-0.2028,-0.2049,-0.21,-0.2147,-0.1962,-0.1741,-0.1623,-0.1529,-0.1456,-0.1443,-0.1677,-0.1703,-0.1727,-0.1703,-0.1485,-0.1485,-0.1214,-0.1212,-0.121,-0.2056,-0.2052,-0.2071,-0.208,-0.2084,-0.2131,-0.2216,-0.2208,-0.226,-0.2369,-0.2386,-0.2315,-0.212,-0.2011,-0.184,-0.1728,-0.1714,-0.1672,-0.167,-0.1648,-0.1866,-0.1841,-0.1648,-0.1648,-0.1648,-0.1648,-0.1648,-0.1648,-0.2098,-0.2098,-0.2115,-0.2137,-0.218,-0.2225,-0.2235,-0.2345,-0.2429,-0.2525,-0.2611,-0.2579,-0.245,-0.2192,-0.2104,-0.1953,-0.1978,-0.1911,-0.1914,-0.1885,-0.1807,-0.1979,-0.1869,-0.1869,-0.187,-0.1871,-0.1871,0,-0.212,-0.2131,-0.2152,-0.2181,-0.2219,-0.2269,-0.2343,-0.2405,-0.2537,-0.2624,-0.2712,-0.2715,-0.2636,-0.2479,-0.2286,-0.2216,-0.2171,-0.2176,-0.2168,-0.2113,-0.2018,-0.1967,-0.2249,-0.2185,-0.2188,-0.2189,-0.2191,-0.2192,-0.2147,-0.2152,-0.22,-0.2218,-0.2238,-0.2285,-0.2331,-0.2422,-0.2492,-0.2649,-0.2701,-0.2724,-0.2718,-0.2602,-0.2509,-0.2374,-0.2333,-0.2241,-0.2275,-0.2209,-0.2199,-0.2162,-0.2121,-0.2219,-0.2216,-0.2213,-0.2211,0,-0.2162,-0.2187,-0.2209,-0.2261,-0.228,-0.2302,-0.2389,-0.2441,-0.2522,-0.2624,-0.2652,-0.2736,-0.2718,-0.2673,-0.2658,-0.2602,-0.2477,-0.2484,-0.2405,-0.2386,-0.2249,-0.2242,-0.2116,-0.2057,-0.2359,-0.2356,-0.2353,0,-0.2198,-0.2209,-0.2251,-0.226,-0.2295,-0.2337,-0.239,-0.2435,-0.252,-0.2597,-0.2633,-0.2695,-0.2715,-0.2707,-0.2667,-0.259,-0.266,-0.2549,-0.2539,-0.2509,-0.2494,-0.2464,-0.2455,-0.2694,-0.2694,-0.2695,-0.2695,0,-0.2208,-0.225,-0.2263,-0.2278,-0.2337,-0.2355,-0.2388,-0.2457,-0.2506,-0.2572,-0.2622,-0.2655,-0.2695,-0.2687,-0.2659,-0.2679,-0.2662,-0.2702,-0.2565,-0.2555,-0.2509,-0.2493,-0.2465,-0.2695,-0.2696,-0.2696,-0.2696,0,-0.2236,-0.2255,-0.2279,-0.2322,-0.2333,-0.236,-0.2415,-0.2454,-0.2523,-0.255,-0.2588,-0.2616,-0.2654,-0.264,-0.2664,-0.2665,-0.2644,-0.265,-0.2649,-0.2535,-0.2522,-0.2427,-0.2418,-0.2392,-0.2615,-0.2615,-0.2615,0,-0.2234,-0.2262,-0.2281,-0.2312,-0.2328,-0.2359,-0.2398,-0.2437,-0.247,-0.2515,-0.2542,-0.2588,-0.257,-0.2594,-0.2612,-0.264,-0.2636,-0.2635,-0.2635,-0.2633,-0.2518,-0.2527,-0.2479,-0.2423,-0.2612,-0.2613,-0.2613,0,-0.2229,-0.2262,-0.2263,-0.2275,-0.2314,-0.2334,-0.2371,-0.241,-0.2441,-0.2464,-0.2502,-0.2545,-0.255,-0.2571,-0.259,-0.2613,-0.2627,-0.2606,-0.2607,-0.257,-0.2652,-0.2536,-0.2526,-0.2659,-0.266,-0.2661,-0.2611,0,-0.2238,-0.2251,-0.2259,-0.2286,-0.2306,-0.2325,-0.2359,-0.2378,-0.2389,-0.2412,-0.2454,-0.2482,-0.2518,-0.2536,-0.2542,-0.2588,-0.2565,-0.2585,-0.2568,-0.2602,-0.2573,-0.2574,-0.2551,-0.2551,-0.255,-0.255,0,0,-0.2222,-0.2236,-0.2247,-0.2267,-0.2281,-0.2299,-0.2319,-0.2342,-0.2374,-0.2387,-0.2377,-0.2444,-0.2461,-0.2516,-0.2525,-0.2542,-0.2537,-0.2529,-0.2587,-0.2591,-0.2595,-0.257,-0.2571,-0.2549,-0.2549,-0.2549,-0.2549,0,-0.2223,-0.223,-0.2239,-0.2258,-0.2281,-0.2299,-0.2304,-0.233,-0.2336,-0.2371,-0.2377,-0.2404,-0.2445,-0.2468,-0.2488,-0.2534,-0.2518,-0.2543,-0.2554,-0.2583,-0.2588,-0.2592,-0.2568,-0.257,-0.2548,-0.2548,-0.2548,0,-0.2216,-0.2229,-0.2232,-0.2261,-0.2273,-0.2298,-0.2293,-0.2311,-0.2331,-0.2333,-0.2356,-0.2373,-0.2402,-0.2439,-0.2454,-0.2447,-0.2499,-0.2493,-0.2496,-0.2485,-0.2515,-0.252,-0.2525,-0.2459,-0.2458,-0.2458,0,0,-0.2217,-0.2223,-0.2251,-0.2263,-0.2272,-0.2291,-0.2302,-0.2306,-0.2325,-0.2329,-0.234,-0.2359,-0.2388,-0.2402,-0.2423,-0.2463,-0.2456,-0.2481,-0.2486,-0.2489,-0.2481,-0.2511,-0.2517,-0.2457,-0.2457,-0.2457,0,0,-0.2217,-0.2237,-0.2238,-0.2256,-0.2276,-0.2302,-0.2307,-0.2313,-0.2328,-0.2322,-0.2331,-0.2335,-0.2365,-0.2376,-0.2356,-0.2418,-0.2402,-0.2407,-0.2409,-0.2415,-0.2419,-0.2401,-0.2343,0,0,0,0,0,-0.2226,-0.2237,-0.2238,-0.2244,-0.2276,-0.2305,-0.231,-0.231,-0.2301,-0.2306,-0.2318,-0.2311,-0.2367,-0.235,-0.2357,-0.2378,-0.2439,-0.2442,-0.2445,-0.2458,-0.2463,-0.2468,0,0,0,0,0,0,-0.2229,-0.2235,-0.2238,-0.2264,-0.2271,-0.2305,-0.229,-0.2291,-0.2299,-0.2296,-0.2311,-0.2312,-0.2316,-0.2347,-0.2353,-0.2372,-0.2341,-0.244,-0.2443,-0.2445,-0.246,-0.2464,-0.2468,0,0,0,0,0,-0.2231,-0.2236,-0.2284,-0.2264,-0.227,-0.2279,-0.2289,-0.2289,-0.2292,-0.2309,-0.2309,-0.229,-0.2317,-0.2322,-0.2351,-0.2369,-0.2336,-0.2339,-0.2442,-0.2444,-0.2446,-0.2462,0,0,0,0,0,0,-0.2232,-0.2238,-0.2285,-0.2288,-0.2249,-0.2277,-0.2279,-0.2288,-0.2304,-0.2305,-0.2289,-0.2286,-0.2318,-0.2322,-0.2326,-0.2368,-0.2333,-0.2335,-0.2337,-0.2444,-0.2445,-0.2447,0,0,0,0,0,0,-0.2235,-0.224,-0.2286,-0.2268,-0.2268,-0.2274,-0.2277,-0.2306,-0.2304,-0.2283,-0.2281,-0.2288,-0.2311,-0.2322,-0.2325,-0.2371,-0.233,-0.2332,-0.2334,-0.2335,-0.2445,-0.2446,0,0,0,0,0,0,-0.2237,-0.2242,-0.2267,-0.2267,-0.2268,-0.2296,-0.2301,-0.2331,-0.2292,-0.2282,-0.2288,-0.2287,-0.2311,-0.2314,-0.2324,-0.237,-0.2371,-0.233,-0.2332,-0.2333,-0.2333,0,0,0,0,0,0,0,-0.2239,-0.2209,-0.2271,-0.2267,-0.2267,-0.2312,-0.2312,-0.2313,-0.2292,-0.229,-0.2289,-0.2287,-0.2317,-0.2319,-0.2322,-0.2368,0,0,-0.233,-0.2331,0,0,0,0,0,0,0,0,-0.2207,-0.2208,-0.2271,-0.2272,-0.2272,-0.2312,-0.2312,-0.2313,-0.2292,-0.229,-0.2289,-0.2288,-0.2317,-0.2319,-0.2322,0,0,0,0,0,0,0,0,0,0,0,0,0,0,0,-0.2271,-0.2272,0,-0.2312,-0.2312,-0.2313,-0.2291,-0.229,-0.2289,-0.2288,-0.2318,-0.232,-0.2321,0,0,0,0,0,0,0,0,0,0,0,0,0,0,0,0,0,0,0,0,0,0,0,0,0,0,0,0,0,0,0,0,0,0,0,0,0,0,0,0,0,0,0,0,0,0,0,0,0,0,0,0,0,0,0,0,0,0,0,0,0,0,0,0,0,0,0,0,0]}],[{"header":{"parameterUnit":"kt","parameterCategory":2,"dx":1,"dy":1,"la1":30.253999710083008,"la2":30.299108505249023,"lo1":-89.0895004272461,"lo2":-89.04439544677734,"nx":28,"ny":28,"refTime":"2022-10-17T21:00:00:Z","depth":"0","parameterNumber":3,"parameterNumberName":"V-component_of_CURRENTS"},"data":[-0.1026,-0.1115,-0.1177,-0.1342,-0.1425,-0.1535,-0.1574,-0.1588,-0.1596,-0.1586,-0.1571,-0.1589,-0.1399,-0.1048,-0.093,-0.0895,-0.0907,-0.084,-0.0808,-0.084,-0.0826,-0.0813,-0.089,-0.0945,-0.0945,-0.0916,-0.0916,-0.0916,-0.1017,-0.1088,-0.1181,-0.1292,-0.1389,-0.1415,-0.1486,-0.1515,-0.1503,-0.1476,-0.1392,-0.1301,-0.1179,-0.1019,-0.0838,-0.0788,-0.0771,-0.0741,-0.0732,-0.0767,-0.0724,-0.0802,-0.084,-0.084,-0.084,-0.084,-0.084,-0.084,-0.1008,-0.1055,-0.1136,-0.1226,-0.1302,-0.1381,-0.1425,-0.1445,-0.144,-0.1388,-0.1245,-0.1161,-0.0996,-0.0778,-0.0685,-0.0593,-0.051,-0.0589,-0.0569,-0.0501,-0.0605,-0.0573,-0.0512,-0.0511,-0.0509,-0.0509,-0.0508,0,-0.0997,-0.1029,-0.1081,-0.1179,-0.1239,-0.1301,-0.1348,-0.1364,-0.1338,-0.1289,-0.1168,-0.1078,-0.0854,-0.0741,-0.0571,-0.0483,-0.0452,-0.0404,-0.043,-0.0639,-0.0612,-0.0643,-0.0585,-0.053,-0.0528,-0.0528,-0.0527,-0.0526,-0.0979,-0.101,-0.1089,-0.1134,-0.1163,-0.121,-0.1255,-0.1255,-0.1273,-0.1164,-0.1151,-0.0987,-0.09,-0.0647,-0.0524,-0.0387,-0.0381,-0.038,-0.0454,-0.0508,-0.0481,-0.0432,-0.0481,-0.0514,-0.0515,-0.0517,-0.0518,0,-0.0971,-0.1002,-0.1055,-0.1105,-0.1125,-0.1157,-0.12,-0.1225,-0.1195,-0.1177,-0.1158,-0.1027,-0.0875,-0.0757,-0.0574,-0.052,-0.0418,-0.036,-0.0479,-0.0468,-0.0495,-0.0493,-0.0362,-0.0409,-0.0286,-0.0286,-0.0286,0,-0.0963,-0.0993,-0.1042,-0.1068,-0.1113,-0.1125,-0.1159,-0.1163,-0.1152,-0.1143,-0.1087,-0.1029,-0.0899,-0.0784,-0.0696,-0.0553,-0.0526,-0.0493,-0.0463,-0.056,-0.057,-0.0565,-0.0564,-0.0453,-0.0454,-0.0455,-0.0456,0,-0.0943,-0.0994,-0.1033,-0.1049,-0.1091,-0.1106,-0.1121,-0.112,-0.1128,-0.1088,-0.1069,-0.0989,-0.092,-0.0833,-0.0707,-0.0728,-0.0542,-0.055,-0.0498,-0.0497,-0.0533,-0.0539,-0.0555,-0.0458,-0.0458,-0.0459,-0.0459,0,-0.0938,-0.0972,-0.1018,-0.1057,-0.1066,-0.1084,-0.11,-0.1111,-0.1086,-0.1069,-0.103,-0.0987,-0.0916,-0.0903,-0.0759,-0.0801,-0.0728,-0.0664,-0.0656,-0.0645,-0.0625,-0.0596,-0.0599,-0.0639,-0.0561,-0.0563,-0.0564,0,-0.0913,-0.0966,-0.0981,-0.1019,-0.1043,-0.1044,-0.1057,-0.1056,-0.1045,-0.1026,-0.0976,-0.0947,-0.0926,-0.0905,-0.0863,-0.0778,-0.0733,-0.0798,-0.0627,-0.0621,-0.0639,-0.0636,-0.0738,-0.0618,-0.0582,-0.058,-0.0579,0,-0.0894,-0.0944,-0.0949,-0.097,-0.099,-0.0999,-0.1012,-0.1013,-0.1016,-0.099,-0.0973,-0.0938,-0.0907,-0.0883,-0.0849,-0.0807,-0.0758,-0.0776,-0.0772,-0.0713,-0.0634,-0.0657,-0.0646,-0.0745,-0.0743,-0.0742,-0.0593,0,-0.0898,-0.0922,-0.0933,-0.0961,-0.0967,-0.0981,-0.0982,-0.0983,-0.0971,-0.0956,-0.0931,-0.0889,-0.0849,-0.0841,-0.082,-0.0791,-0.0761,-0.0751,-0.0715,-0.0732,-0.0663,-0.0653,-0.0761,-0.076,-0.0759,-0.0758,0,0,-0.0868,-0.0899,-0.0903,-0.0925,-0.0932,-0.0922,-0.0938,-0.0933,-0.0917,-0.0908,-0.0896,-0.0838,-0.0805,-0.0778,-0.0788,-0.0773,-0.073,-0.0755,-0.0733,-0.073,-0.0728,-0.0664,-0.0655,-0.0757,-0.0756,-0.0756,-0.0756,0,-0.087,-0.0881,-0.0901,-0.0908,-0.0917,-0.0911,-0.0917,-0.0908,-0.0899,-0.0892,-0.0858,-0.0832,-0.0793,-0.0762,-0.0742,-0.0762,-0.0698,-0.0756,-0.0776,-0.0726,-0.0725,-0.0724,-0.0661,-0.0654,-0.0753,-0.0753,-0.0753,0,-0.0856,-0.0869,-0.0877,-0.0892,-0.0888,-0.0898,-0.0875,-0.0879,-0.0883,-0.0831,-0.0819,-0.079,-0.0747,-0.0732,-0.072,-0.0702,-0.0661,-0.0688,-0.0693,-0.0683,-0.0629,-0.0628,-0.0628,-0.0629,-0.0629,-0.0629,0,0,-0.0855,-0.0874,-0.0878,-0.0891,-0.0893,-0.0881,-0.0877,-0.0869,-0.085,-0.0839,-0.0805,-0.077,-0.0745,-0.0724,-0.0698,-0.0681,-0.0633,-0.0676,-0.0682,-0.0687,-0.068,-0.0627,-0.0627,-0.0628,-0.0628,-0.0628,0,0,-0.0847,-0.0862,-0.0862,-0.088,-0.0879,-0.0864,-0.0862,-0.0852,-0.0829,-0.0823,-0.0776,-0.0764,-0.0746,-0.0713,-0.0711,-0.0683,-0.0656,-0.0656,-0.0707,-0.0713,-0.0719,-0.0718,-0.0664,0,0,0,0,0,-0.085,-0.0865,-0.0866,-0.0869,-0.087,-0.0871,-0.0868,-0.0846,-0.0834,-0.0833,-0.0802,-0.0767,-0.0704,-0.0701,-0.069,-0.0693,-0.062,-0.0621,-0.0623,-0.0684,-0.0692,-0.0698,0,0,0,0,0,0,-0.0851,-0.0856,-0.0865,-0.0856,-0.0856,-0.087,-0.0845,-0.0838,-0.0833,-0.0829,-0.0777,-0.0766,-0.0731,-0.0703,-0.0694,-0.0698,-0.0667,-0.0621,-0.0622,-0.0623,-0.0687,-0.0693,-0.0698,0,0,0,0,0,-0.0852,-0.0856,-0.0869,-0.0854,-0.0854,-0.0832,-0.0844,-0.0838,-0.0829,-0.0783,-0.0773,-0.0814,-0.0733,-0.0722,-0.0697,-0.0703,-0.0673,-0.067,-0.0621,-0.0622,-0.0623,-0.069,0,0,0,0,0,0,-0.0853,-0.0841,-0.0868,-0.0866,-0.0848,-0.0829,-0.0828,-0.0838,-0.0782,-0.0774,-0.0817,-0.0815,-0.0734,-0.0725,-0.0717,-0.0708,-0.0677,-0.0674,-0.0672,-0.0622,-0.0623,-0.0624,0,0,0,0,0,0,-0.0839,-0.084,-0.0867,-0.086,-0.0857,-0.0827,-0.0826,-0.0797,-0.078,-0.0818,-0.0815,-0.0817,-0.0735,-0.0727,-0.0721,-0.0677,-0.0681,-0.0678,-0.0676,-0.0675,-0.0623,-0.0623,0,0,0,0,0,0,-0.0838,-0.0839,-0.086,-0.0858,-0.0855,-0.0832,-0.0799,-0.0793,-0.0803,-0.0819,-0.0801,-0.08,-0.0737,-0.0731,-0.0724,-0.0683,-0.0679,-0.0681,-0.0679,-0.0677,-0.0676,0,0,0,0,0,0,0,-0.0838,-0.0844,-0.0882,-0.0856,-0.0854,-0.0852,-0.0851,-0.085,-0.0803,-0.0802,-0.0801,-0.08,-0.0698,-0.0695,-0.0691,-0.0688,0,0,-0.0681,-0.068,0,0,0,0,0,0,0,0,-0.0842,-0.0844,-0.0882,-0.0882,-0.0881,-0.0851,-0.0851,-0.085,-0.0803,-0.0802,-0.0801,-0.0801,-0.0697,-0.0694,-0.0692,0,0,0,0,0,0,0,0,0,0,0,0,0,0,0,-0.0882,-0.0882,0,-0.0851,-0.0851,-0.085,-0.0803,-0.0802,-0.0801,-0.0801,-0.0696,-0.0694,-0.0692,0,0,0,0,0,0,0,0,0,0,0,0,0,0,0,0,0,0,0,0,0,0,0,0,0,0,0,0,0,0,0,0,0,0,0,0,0,0,0,0,0,0,0,0,0,0,0,0,0,0,0,0,0,0,0,0,0,0,0,0,0,0,0,0,0,0,0,0,0]}]],[[{"header":{"parameterUnit":"kt","parameterCategory":2,"dx":1,"dy":1,"la1":30.253999710083008,"la2":30.299108505249023,"lo1":-89.0895004272461,"lo2":-89.04439544677734,"nx":28,"ny":28,"refTime":"2022-10-17T21:00:00:Z","depth":"2","parameterNumber":2,"parameterNumberName":"U-component_of_CURRENTS"},"data":[-0.1974,-0.1942,-0.1932,-0.1872,-0.188,-0.1805,-0.1813,-0.1708,-0.166,-0.1524,-0.1449,-0.1393,-0.1478,-0.1197,-0.1145,-0.1049,-0.1203,-0.1017,-0.1446,-0.153,-0.1564,-0.1661,-0.161,0,0,0,0,0,-0.2,-0.1999,-0.2012,-0.2013,-0.1998,-0.2055,-0.2124,-0.2051,-0.2036,-0.2058,-0.2007,-0.1768,-0.1575,-0.1531,-0.1346,-0.1313,-0.1342,-0.1278,-0.1316,-0.1356,-0.1392,-0.1331,-0.0999,-0.0997,-0.0996,-0.0994,0,0,-0.205,-0.2048,-0.206,-0.2076,-0.2114,-0.2147,-0.215,-0.2216,-0.2277,-0.2298,-0.2424,-0.2309,-0.2254,-0.1854,-0.174,-0.1662,-0.181,-0.1754,-0.177,-0.1791,-0.1748,-0.168,-0.1528,-0.153,-0.1532,-0.1534,-0.1535,0,-0.2074,-0.2084,-0.2101,-0.2124,-0.2157,-0.2201,-0.2266,-0.2321,-0.2447,-0.2522,-0.261,-0.2607,-0.2511,-0.229,-0.2093,-0.202,-0.2087,-0.1979,-0.2293,-0.2009,-0.1945,-0.1944,-0.1962,-0.1853,-0.1857,-0.186,-0.1863,-0.1864,-0.2104,-0.2106,-0.2148,-0.2164,-0.2183,-0.2225,-0.2266,-0.2352,-0.2414,-0.2571,-0.2618,-0.2646,-0.2631,-0.2524,-0.2409,-0.2271,-0.2356,-0.2076,-0.2091,-0.2333,-0.233,-0.2335,-0.2339,-0.1908,-0.1902,-0.1898,-0.1894,0,-0.212,-0.2142,-0.216,-0.2208,-0.2225,-0.2245,-0.2326,-0.2372,-0.2451,-0.2547,-0.2574,-0.2659,-0.2645,-0.2605,-0.2595,-0.2542,-0.2485,-0.2429,-0.2241,-0.2211,-0.2361,-0.2359,-0.2315,-0.2311,-0.2307,-0.2304,-0.2301,0,-0.2156,-0.2165,-0.2203,-0.2209,-0.2241,-0.228,-0.2329,-0.2372,-0.2452,-0.2524,-0.2561,-0.2621,-0.2645,-0.264,-0.2603,-0.2531,-0.2601,-0.249,-0.2482,-0.2355,-0.2332,-0.2605,-0.2602,-0.2634,-0.2635,-0.2635,-0.2635,0,-0.2169,-0.2206,-0.2215,-0.2228,-0.2282,-0.2298,-0.2329,-0.2395,-0.244,-0.2504,-0.2552,-0.2586,-0.2626,-0.262,-0.2596,-0.2615,-0.2603,-0.2641,-0.2506,-0.2497,-0.2356,-0.2332,-0.2636,-0.2636,-0.2636,-0.2636,-0.2636,0,-0.2197,-0.2212,-0.2232,-0.227,-0.228,-0.2305,-0.2356,-0.2392,-0.2458,-0.2485,-0.2521,-0.2549,-0.2587,-0.2573,-0.26,-0.26,-0.2582,-0.2588,-0.2588,-0.2472,-0.246,-0.227,-0.2239,-0.2558,-0.2557,-0.2557,-0.2557,0,-0.2197,-0.222,-0.2237,-0.2264,-0.2277,-0.2305,-0.2343,-0.2379,-0.241,-0.2452,-0.2479,-0.2523,-0.2507,-0.2529,-0.2548,-0.2576,-0.2573,-0.2571,-0.2573,-0.2571,-0.2456,-0.2466,-0.2308,-0.2247,-0.2555,-0.2555,-0.2555,0,-0.2193,-0.2222,-0.2222,-0.2232,-0.2266,-0.2283,-0.2318,-0.2354,-0.2383,-0.2406,-0.2441,-0.2482,-0.2488,-0.2508,-0.2525,-0.2548,-0.2564,-0.2542,-0.2543,-0.2509,-0.2591,-0.2475,-0.2465,-0.2595,-0.2596,-0.2597,-0.2553,0,-0.2201,-0.2212,-0.2219,-0.2242,-0.226,-0.2276,-0.2306,-0.2325,-0.2335,-0.2356,-0.2397,-0.2422,-0.2456,-0.2474,-0.2479,-0.2523,-0.2502,-0.2521,-0.2504,-0.2537,-0.2511,-0.2513,-0.2487,-0.2487,-0.2486,-0.2486,0,0,-0.2188,-0.2199,-0.2208,-0.2224,-0.2236,-0.2252,-0.2269,-0.229,-0.2318,-0.2331,-0.2322,-0.2384,-0.24,-0.2452,-0.2461,-0.2477,-0.2473,-0.2465,-0.2523,-0.2527,-0.2531,-0.2508,-0.251,-0.2485,-0.2485,-0.2485,-0.2485,0,-0.2187,-0.2193,-0.22,-0.2217,-0.2235,-0.225,-0.2255,-0.2278,-0.2283,-0.2316,-0.232,-0.2346,-0.2385,-0.2406,-0.2424,-0.2469,-0.2454,-0.2479,-0.2489,-0.2519,-0.2523,-0.2527,-0.2506,-0.2508,-0.2484,-0.2484,-0.2484,0,-0.2181,-0.2191,-0.2193,-0.2217,-0.2227,-0.2249,-0.2242,-0.2258,-0.2276,-0.2277,-0.2299,-0.2314,-0.234,-0.2376,-0.239,-0.2383,-0.2434,-0.2428,-0.243,-0.242,-0.2448,-0.2454,-0.2459,-0.2392,-0.2392,-0.2392,0,0,-0.2181,-0.2186,-0.2208,-0.2219,-0.2227,-0.2241,-0.225,-0.2254,-0.227,-0.2273,-0.2283,-0.23,-0.2327,-0.234,-0.236,-0.2398,-0.2391,-0.2416,-0.242,-0.2424,-0.2415,-0.2445,-0.245,-0.239,-0.239,-0.239,0,0,-0.2181,-0.2197,-0.2196,-0.2212,-0.2228,-0.2249,-0.2253,-0.2258,-0.2271,-0.2266,-0.2273,-0.2276,-0.2305,-0.2314,-0.2295,-0.2355,-0.2338,-0.2343,-0.2347,-0.2353,-0.2357,-0.2339,-0.2281,0,0,0,0,0,-0.2187,-0.2197,-0.2197,-0.2201,-0.2228,-0.2253,-0.2257,-0.2255,-0.2246,-0.2251,-0.2261,-0.2253,-0.2306,-0.2289,-0.2295,-0.2316,-0.2373,-0.2376,-0.2379,-0.2393,-0.2399,-0.2404,0,0,0,0,0,0,-0.2189,-0.2194,-0.2197,-0.2218,-0.2224,-0.2252,-0.2237,-0.2238,-0.2244,-0.2241,-0.2253,-0.2254,-0.2257,-0.2285,-0.2291,-0.2311,-0.2279,-0.2374,-0.2376,-0.2379,-0.2395,-0.24,-0.2404,0,0,0,0,0,-0.2191,-0.2195,-0.2234,-0.2218,-0.2223,-0.2228,-0.2236,-0.2236,-0.2238,-0.2251,-0.2251,-0.2235,-0.2258,-0.2262,-0.2289,-0.2308,-0.2275,-0.2277,-0.2376,-0.2378,-0.238,-0.2398,0,0,0,0,0,0,-0.2192,-0.2196,-0.2235,-0.2237,-0.2204,-0.2226,-0.2228,-0.2234,-0.2247,-0.2248,-0.2233,-0.2231,-0.2259,-0.2262,-0.2265,-0.2307,-0.2271,-0.2274,-0.2275,-0.2377,-0.2379,-0.238,0,0,0,0,0,0,-0.2194,-0.2198,-0.2236,-0.2219,-0.2219,-0.2224,-0.2225,-0.2253,-0.2248,-0.2228,-0.2227,-0.2232,-0.2253,-0.2262,-0.2265,-0.2308,-0.2269,-0.2271,-0.2272,-0.2273,-0.2378,-0.238,0,0,0,0,0,0,-0.2196,-0.2199,-0.2218,-0.2218,-0.2218,-0.2241,-0.2248,-0.2273,-0.2235,-0.2228,-0.2232,-0.223,-0.2253,-0.2256,-0.2264,-0.2306,-0.2308,-0.2269,-0.227,-0.2271,-0.2272,0,0,0,0,0,0,0,-0.2198,-0.2173,-0.2224,-0.2218,-0.2218,-0.2256,-0.2257,-0.2257,-0.2235,-0.2234,-0.2232,-0.2231,-0.2257,-0.2259,-0.2261,-0.2305,0,0,-0.2269,-0.227,0,0,0,0,0,0,0,0,-0.2171,-0.2172,-0.2224,-0.2224,-0.2225,-0.2257,-0.2257,-0.2257,-0.2235,-0.2234,-0.2232,-0.2231,-0.2257,-0.2259,-0.2261,0,0,0,0,0,0,0,0,0,0,0,0,0,0,0,-0.2224,-0.2224,0,-0.2257,-0.2257,-0.2257,-0.2235,-0.2234,-0.2233,-0.2232,-0.2258,-0.2259,-0.2261,0,0,0,0,0,0,0,0,0,0,0,0,0,0,0,0,0,0,0,0,0,0,0,0,0,0,0,0,0,0,0,0,0,0,0,0,0,0,0,0,0,0,0,0,0,0,0,0,0,0,0,0,0,0,0,0,0,0,0,0,0,0,0,0,0,0,0,0,0]}],[{"header":{"parameterUnit":"kt","parameterCategory":2,"dx":1,"dy":1,"la1":30.253999710083008,"la2":30.299108505249023,"lo1":-89.0895004272461,"lo2":-89.04439544677734,"nx":28,"ny":28,"refTime":"2022-10-17T21:00:00:Z","depth":"2","parameterNumber":3,"parameterNumberName":"V-component_of_CURRENTS"},"data":[-0.0913,-0.1003,-0.1064,-0.1233,-0.1321,-0.1421,-0.1461,-0.1438,-0.1393,-0.13,-0.1209,-0.1146,-0.0896,-0.0725,-0.054,-0.0389,-0.0345,-0.0355,-0.0382,-0.0427,-0.0427,-0.0297,-0.0382,0,0,0,0,0,-0.0901,-0.0976,-0.1071,-0.1187,-0.1282,-0.1315,-0.1392,-0.1401,-0.1393,-0.1319,-0.1233,-0.1027,-0.0875,-0.0654,-0.0412,-0.029,-0.0273,-0.0237,-0.0255,-0.0255,-0.0255,-0.0307,-0.0256,-0.0255,-0.0254,-0.0254,0,0,-0.0888,-0.0937,-0.102,-0.1114,-0.1195,-0.1277,-0.1325,-0.1348,-0.1353,-0.129,-0.1168,-0.1035,-0.0851,-0.0623,-0.0451,-0.0274,-0.0296,-0.0261,-0.0261,-0.0261,-0.0313,-0.034,-0.0264,-0.0264,-0.0263,-0.0263,-0.0263,0,-0.0872,-0.0905,-0.0959,-0.1061,-0.1125,-0.1192,-0.1245,-0.1266,-0.1247,-0.1209,-0.1099,-0.1016,-0.0785,-0.0623,-0.0448,-0.0356,-0.0284,-0.0252,-0.0226,-0.0339,-0.0365,-0.0347,-0.0354,-0.0287,-0.0286,-0.0286,-0.0286,-0.0286,-0.0847,-0.0881,-0.0963,-0.101,-0.1041,-0.1094,-0.1142,-0.1147,-0.1171,-0.1076,-0.1069,-0.0917,-0.0836,-0.0592,-0.0448,-0.0308,-0.0292,-0.0248,-0.0301,-0.0314,-0.0294,-0.0302,-0.0311,-0.0284,-0.0284,-0.0284,-0.0285,0,-0.0834,-0.0865,-0.0923,-0.0977,-0.0998,-0.1035,-0.1083,-0.1114,-0.1089,-0.1082,-0.1066,-0.0943,-0.0798,-0.0681,-0.0506,-0.0447,-0.033,-0.0292,-0.0336,-0.0317,-0.0308,-0.0316,-0.0225,-0.0225,-0.0225,-0.0224,-0.0224,0,-0.0818,-0.0853,-0.0902,-0.0931,-0.0983,-0.0995,-0.1037,-0.1043,-0.1038,-0.1038,-0.0981,-0.0931,-0.0802,-0.0694,-0.0604,-0.0467,-0.0445,-0.0403,-0.0373,-0.0406,-0.041,-0.0383,-0.0386,-0.0369,-0.037,-0.0371,-0.0372,0,-0.0791,-0.0846,-0.0889,-0.0907,-0.0951,-0.097,-0.0986,-0.0989,-0.1001,-0.0969,-0.0955,-0.088,-0.0816,-0.0733,-0.0605,-0.062,-0.0453,-0.0454,-0.0402,-0.0401,-0.0378,-0.0378,-0.0373,-0.0373,-0.0374,-0.0374,-0.0374,0,-0.0778,-0.0814,-0.0865,-0.0909,-0.0918,-0.0939,-0.0961,-0.0974,-0.0954,-0.0939,-0.0904,-0.0861,-0.0795,-0.0775,-0.0642,-0.0677,-0.0606,-0.0544,-0.0537,-0.052,-0.0495,-0.0418,-0.0419,-0.0448,-0.0449,-0.045,-0.0451,0,-0.0748,-0.0803,-0.0817,-0.0861,-0.0887,-0.0887,-0.0903,-0.0904,-0.0894,-0.0881,-0.0831,-0.0807,-0.0777,-0.0759,-0.072,-0.0637,-0.0599,-0.0653,-0.0497,-0.0492,-0.0506,-0.0514,-0.0544,-0.0436,-0.0465,-0.0464,-0.0463,0,-0.0723,-0.0772,-0.0778,-0.0801,-0.0821,-0.0831,-0.0847,-0.085,-0.0858,-0.0831,-0.0823,-0.0785,-0.0754,-0.0729,-0.0694,-0.0656,-0.0618,-0.0622,-0.0618,-0.057,-0.0512,-0.053,-0.0522,-0.0604,-0.0603,-0.0602,-0.0474,0,-0.072,-0.0746,-0.0758,-0.0787,-0.0793,-0.0809,-0.0809,-0.0812,-0.0801,-0.0787,-0.0766,-0.0721,-0.0684,-0.0675,-0.065,-0.0629,-0.06,-0.0587,-0.055,-0.0572,-0.0512,-0.0504,-0.0585,-0.0584,-0.0583,-0.0582,0,0,-0.0686,-0.0719,-0.072,-0.0743,-0.0752,-0.074,-0.0759,-0.0754,-0.0738,-0.0732,-0.0718,-0.0663,-0.0628,-0.0605,-0.0615,-0.0597,-0.0559,-0.0581,-0.0569,-0.0568,-0.0566,-0.0511,-0.0504,-0.058,-0.0579,-0.0579,-0.0579,0,-0.0686,-0.0697,-0.0717,-0.0724,-0.0734,-0.0728,-0.0734,-0.0726,-0.0718,-0.0712,-0.0678,-0.0653,-0.0613,-0.0583,-0.0563,-0.0585,-0.0524,-0.0578,-0.0604,-0.0561,-0.0561,-0.0561,-0.0508,-0.0502,-0.0576,-0.0576,-0.0576,0,-0.0669,-0.0681,-0.0689,-0.0704,-0.07,-0.0711,-0.0688,-0.0693,-0.0699,-0.0645,-0.0636,-0.0606,-0.0562,-0.0548,-0.0536,-0.0518,-0.0485,-0.0506,-0.0511,-0.0503,-0.0456,-0.0457,-0.0459,-0.0442,-0.0441,-0.0441,0,0,-0.0667,-0.0685,-0.0688,-0.0702,-0.0705,-0.0692,-0.0689,-0.0682,-0.0663,-0.0653,-0.0619,-0.0585,-0.056,-0.054,-0.0512,-0.0495,-0.0452,-0.0492,-0.0499,-0.0504,-0.05,-0.0454,-0.0456,-0.0441,-0.0441,-0.0441,0,0,-0.0658,-0.0672,-0.0672,-0.069,-0.0689,-0.0673,-0.0673,-0.0663,-0.0641,-0.0638,-0.0589,-0.0577,-0.0561,-0.0527,-0.0525,-0.0498,-0.0469,-0.0469,-0.0524,-0.0531,-0.0537,-0.054,-0.0477,0,0,0,0,0,-0.0659,-0.0674,-0.0675,-0.0678,-0.0679,-0.0679,-0.0676,-0.0656,-0.0646,-0.0647,-0.0616,-0.0581,-0.0518,-0.0514,-0.0504,-0.0509,-0.0432,-0.0433,-0.0435,-0.0502,-0.051,-0.0517,0,0,0,0,0,0,-0.066,-0.0664,-0.0674,-0.0664,-0.0663,-0.0678,-0.0654,-0.0648,-0.0645,-0.0641,-0.059,-0.058,-0.0544,-0.0517,-0.0507,-0.0514,-0.048,-0.0432,-0.0434,-0.0435,-0.0505,-0.0512,-0.0517,0,0,0,0,0,-0.0661,-0.0664,-0.0676,-0.0662,-0.0662,-0.0642,-0.0653,-0.0648,-0.0641,-0.0594,-0.0584,-0.0628,-0.0545,-0.0534,-0.0511,-0.0519,-0.0486,-0.0483,-0.0433,-0.0434,-0.0435,-0.0508,0,0,0,0,0,0,-0.0661,-0.0649,-0.0675,-0.0673,-0.0658,-0.0639,-0.0638,-0.0648,-0.0593,-0.0585,-0.0629,-0.0627,-0.0546,-0.0538,-0.053,-0.0524,-0.0491,-0.0488,-0.0486,-0.0434,-0.0435,-0.0436,0,0,0,0,0,0,-0.0647,-0.0648,-0.0674,-0.067,-0.0667,-0.0638,-0.0636,-0.0606,-0.0591,-0.0629,-0.0627,-0.0628,-0.0548,-0.054,-0.0533,-0.0487,-0.0495,-0.0492,-0.0489,-0.0488,-0.0435,-0.0435,0,0,0,0,0,0,-0.0647,-0.0647,-0.067,-0.0668,-0.0665,-0.0643,-0.0607,-0.0601,-0.0615,-0.063,-0.0614,-0.0613,-0.0551,-0.0544,-0.0536,-0.0493,-0.0488,-0.0495,-0.0492,-0.0491,-0.049,0,0,0,0,0,0,0,-0.0646,-0.0653,-0.0689,-0.0666,-0.0664,-0.0659,-0.0658,-0.0657,-0.0615,-0.0614,-0.0614,-0.0613,-0.0512,-0.0509,-0.0506,-0.0497,0,0,-0.0495,-0.0493,0,0,0,0,0,0,0,0,-0.0651,-0.0652,-0.0689,-0.0689,-0.0689,-0.0659,-0.0658,-0.0657,-0.0615,-0.0614,-0.0614,-0.0613,-0.0511,-0.0509,-0.0506,0,0,0,0,0,0,0,0,0,0,0,0,0,0,0,-0.0689,-0.0689,0,-0.0659,-0.0658,-0.0658,-0.0615,-0.0614,-0.0614,-0.0614,-0.0511,-0.0508,-0.0506,0,0,0,0,0,0,0,0,0,0,0,0,0,0,0,0,0,0,0,0,0,0,0,0,0,0,0,0,0,0,0,0,0,0,0,0,0,0,0,0,0,0,0,0,0,0,0,0,0,0,0,0,0,0,0,0,0,0,0,0,0,0,0,0,0,0,0,0,0]}]],[[{"header":{"parameterUnit":"kt","parameterCategory":2,"dx":1,"dy":1,"la1":30.253999710083008,"la2":30.299108505249023,"lo1":-89.0895004272461,"lo2":-89.04439544677734,"nx":28,"ny":28,"refTime":"2022-10-17T21:00:00:Z","depth":"4","parameterNumber":2,"parameterNumberName":"U-component_of_CURRENTS"},"data":[-0.1397,-0.1399,-0.1366,-0.1254,-0.1214,-0.1204,-0.1197,-0.1193,-0.1125,-0.1126,-0.1151,-0.1187,-0.1246,-0.1208,-0.1252,-0.1276,-0.1359,-0.1468,-0.1466,-0.1663,-0.168,-0.1695,-0.1694,0,0,0,0,0,-0.1443,-0.141,-0.1412,-0.1387,-0.1413,-0.1419,-0.143,-0.146,-0.1442,-0.1274,-0.1306,-0.1242,-0.1225,-0.1239,-0.1276,-0.1376,-0.1559,-0.1413,-0.1576,-0.1673,-0.1692,-0.1685,0,0,0,0,0,0,-0.1502,-0.1498,-0.1524,-0.1529,-0.1564,-0.1506,-0.1545,-0.1482,-0.1478,-0.1431,-0.1322,-0.1317,-0.1358,-0.1393,-0.1422,-0.1489,-0.1512,-0.1508,-0.1534,-0.1553,-0.1518,-0.1435,-0.1221,0,0,0,0,0,-0.1547,-0.1585,-0.1605,-0.1633,-0.1661,-0.168,-0.17,-0.1668,-0.1676,-0.1755,-0.1557,-0.1528,-0.147,-0.1518,-0.1582,-0.1621,-0.1839,-0.1772,-0.1784,-0.186,-0.1821,-0.1819,-0.1831,-0.1762,-0.1765,-0.1766,-0.1767,0,-0.1616,-0.162,-0.1693,-0.1709,-0.1739,-0.1788,-0.1811,-0.1891,-0.1884,-0.1831,-0.1776,-0.1763,-0.1758,-0.1668,-0.1778,-0.1839,-0.1844,-0.182,-0.1901,-0.1851,-0.1843,-0.1851,-0.1858,-0.1782,-0.1781,-0.178,-0.1779,0,-0.1651,-0.1692,-0.1716,-0.1781,-0.1805,-0.1827,-0.19,-0.1922,-0.1982,-0.195,-0.1961,-0.1974,-0.1937,-0.2023,-0.204,-0.2015,-0.2002,-0.196,-0.2088,-0.2082,-0.1884,-0.1885,-0.1807,-0.1801,-0.1797,-0.1793,-0.179,0,-0.1712,-0.173,-0.1789,-0.1795,-0.1828,-0.1876,-0.1921,-0.1967,-0.2026,-0.2005,-0.2104,-0.2055,-0.2158,-0.2145,-0.2171,-0.2087,-0.2161,-0.2057,-0.2039,-0.221,-0.221,-0.2192,-0.2189,-0.2221,-0.2222,-0.2222,-0.2223,0,-0.1745,-0.1786,-0.1802,-0.1815,-0.1868,-0.1896,-0.1932,-0.1998,-0.2028,-0.2095,-0.2104,-0.2166,-0.2158,-0.2197,-0.2182,-0.2208,-0.2174,-0.2212,-0.2076,-0.2065,-0.2194,-0.219,-0.2223,-0.2223,-0.2223,-0.2224,-0.2224,0,-0.1784,-0.1798,-0.182,-0.1859,-0.1868,-0.1899,-0.1953,-0.1991,-0.2055,-0.2085,-0.213,-0.2155,-0.2189,-0.2197,-0.2212,-0.2218,-0.2212,-0.2213,-0.2211,-0.2062,-0.2042,-0.2118,-0.2163,-0.2163,-0.2163,-0.2163,-0.2163,0,-0.1795,-0.1813,-0.183,-0.1859,-0.1867,-0.1902,-0.1943,-0.1984,-0.2022,-0.2062,-0.21,-0.2141,-0.2151,-0.2172,-0.2196,-0.2199,-0.2208,-0.2217,-0.2184,-0.2182,-0.2043,-0.2052,-0.2236,-0.2164,-0.2164,-0.2164,-0.2164,0,-0.1792,-0.1818,-0.1822,-0.1831,-0.1863,-0.1874,-0.1922,-0.1956,-0.1987,-0.2031,-0.2064,-0.2123,-0.2132,-0.215,-0.2167,-0.2189,-0.2203,-0.218,-0.218,-0.2135,-0.2208,-0.2068,-0.2054,-0.2232,-0.2232,-0.2233,-0.2164,0,-0.1793,-0.1808,-0.1816,-0.1833,-0.185,-0.1865,-0.1891,-0.1922,-0.1948,-0.1967,-0.2023,-0.2051,-0.2085,-0.211,-0.2113,-0.216,-0.2134,-0.2147,-0.2119,-0.2162,-0.2124,-0.2124,-0.2113,-0.2112,-0.2112,-0.2111,0,0,-0.1783,-0.1788,-0.1795,-0.1805,-0.1815,-0.1831,-0.1845,-0.187,-0.1901,-0.1919,-0.1923,-0.1994,-0.2013,-0.2063,-0.2082,-0.2097,-0.2085,-0.2087,-0.2146,-0.215,-0.2153,-0.212,-0.212,-0.211,-0.2109,-0.2109,-0.2109,0,-0.1766,-0.1779,-0.1788,-0.1798,-0.1811,-0.1817,-0.1828,-0.1843,-0.1861,-0.1902,-0.191,-0.1946,-0.1992,-0.201,-0.2025,-0.2083,-0.206,-0.21,-0.212,-0.2139,-0.2144,-0.2149,-0.2117,-0.2118,-0.2107,-0.2107,-0.2107,0,-0.1751,-0.1753,-0.1761,-0.1772,-0.178,-0.1795,-0.1788,-0.1807,-0.1829,-0.1828,-0.1874,-0.1893,-0.1914,-0.1958,-0.1981,-0.1969,-0.2029,-0.2026,-0.203,-0.2016,-0.2033,-0.2039,-0.2045,-0.1969,-0.1969,-0.1968,0,0,-0.174,-0.1749,-0.1752,-0.1768,-0.1773,-0.1782,-0.1792,-0.1797,-0.1813,-0.1825,-0.1844,-0.187,-0.1898,-0.1918,-0.1938,-0.1982,-0.1964,-0.2009,-0.2016,-0.2021,-0.201,-0.2028,-0.2035,-0.1967,-0.1967,-0.1967,0,0,-0.1732,-0.1733,-0.1737,-0.1753,-0.1762,-0.1763,-0.1778,-0.1785,-0.1812,-0.182,-0.1827,-0.1832,-0.1879,-0.1884,-0.1861,-0.1936,-0.1909,-0.1915,-0.1933,-0.1941,-0.1948,-0.1927,-0.1843,0,0,0,0,0,-0.1718,-0.1731,-0.1735,-0.1738,-0.1752,-0.1762,-0.1765,-0.1772,-0.1778,-0.1791,-0.1812,-0.1807,-0.1874,-0.1853,-0.1859,-0.1892,-0.1944,-0.1948,-0.1952,-0.1986,-0.1995,-0.2002,0,0,0,0,0,0,-0.1718,-0.1721,-0.1734,-0.1735,-0.1738,-0.1761,-0.1753,-0.1756,-0.1777,-0.1778,-0.1803,-0.1806,-0.1806,-0.1849,-0.1855,-0.1887,-0.1841,-0.1946,-0.1949,-0.1952,-0.1989,-0.1996,-0.2002,0,0,0,0,0,-0.1719,-0.1721,-0.1743,-0.1735,-0.1738,-0.1749,-0.1753,-0.1755,-0.1777,-0.1783,-0.1787,-0.1783,-0.1805,-0.1812,-0.1853,-0.1884,-0.1837,-0.1839,-0.1948,-0.1951,-0.1953,-0.1993,0,0,0,0,0,0,-0.172,-0.1725,-0.1744,-0.1745,-0.1733,-0.1749,-0.1751,-0.1754,-0.1781,-0.1785,-0.1762,-0.1762,-0.1805,-0.181,-0.1815,-0.1884,-0.1834,-0.1836,-0.1838,-0.195,-0.1952,-0.1954,0,0,0,0,0,0,-0.1724,-0.1726,-0.1745,-0.1741,-0.1742,-0.1748,-0.175,-0.1773,-0.1782,-0.1759,-0.176,-0.1762,-0.1804,-0.1809,-0.1813,-0.1847,-0.1832,-0.1834,-0.1835,-0.1836,-0.1952,-0.1953,0,0,0,0,0,0,-0.1725,-0.1727,-0.1741,-0.1742,-0.1743,-0.1759,-0.1769,-0.1788,-0.1767,-0.1758,-0.1767,-0.1767,-0.1803,-0.1807,-0.1812,-0.1844,-0.1847,-0.1832,-0.1833,-0.1834,-0.1835,0,0,0,0,0,0,0,-0.1726,-0.171,-0.1735,-0.1742,-0.1743,-0.1758,-0.1758,-0.1759,-0.1767,-0.1767,-0.1767,-0.1767,-0.182,-0.1822,-0.1824,-0.1842,0,0,-0.1831,-0.1832,0,0,0,0,0,0,0,0,-0.171,-0.171,-0.1735,-0.1735,-0.1736,-0.1758,-0.1758,-0.1759,-0.1767,-0.1767,-0.1767,-0.1767,-0.1821,-0.1822,-0.1824,0,0,0,0,0,0,0,0,0,0,0,0,0,0,0,-0.1735,-0.1735,0,-0.1758,-0.1758,-0.1759,-0.1767,-0.1767,-0.1767,-0.1767,-0.1821,-0.1823,-0.1824,0,0,0,0,0,0,0,0,0,0,0,0,0,0,0,0,0,0,0,0,0,0,0,0,0,0,0,0,0,0,0,0,0,0,0,0,0,0,0,0,0,0,0,0,0,0,0,0,0,0,0,0,0,0,0,0,0,0,0,0,0,0,0,0,0,0,0,0,0]}],[{"header":{"parameterUnit":"kt","parameterCategory":2,"dx":1,"dy":1,"la1":30.253999710083008,"la2":30.299108505249023,"lo1":-89.0895004272461,"lo2":-89.04439544677734,"nx":28,"ny":28,"refTime":"2022-10-17T21:00:00:Z","depth":"4","parameterNumber":3,"parameterNumberName":"V-component_of_CURRENTS"},"data":[-0.0578,-0.068,-0.0745,-0.0914,-0.1006,-0.114,-0.1202,-0.1245,-0.1247,-0.1286,-0.1189,-0.1176,-0.0994,-0.1138,-0.0828,-0.079,-0.0708,-0.0562,-0.0558,-0.0455,-0.0458,-0.0461,-0.0421,0,0,0,0,0,-0.0554,-0.0631,-0.0745,-0.0884,-0.1003,-0.1067,-0.1184,-0.1219,-0.1283,-0.1308,-0.1302,-0.1236,-0.1059,-0.1031,-0.0838,-0.0863,-0.0628,-0.0635,-0.0549,-0.0457,-0.0461,-0.042,0,0,0,0,0,0,-0.0531,-0.0592,-0.0695,-0.0812,-0.0936,-0.1048,-0.1096,-0.1175,-0.1231,-0.1292,-0.1336,-0.1266,-0.124,-0.1031,-0.0903,-0.0727,-0.0663,-0.0598,-0.0594,-0.0596,-0.0585,-0.0609,-0.0648,0,0,0,0,0,-0.0506,-0.055,-0.0627,-0.0761,-0.0858,-0.0968,-0.1069,-0.1116,-0.1187,-0.1221,-0.1279,-0.1206,-0.1151,-0.0998,-0.0833,-0.0693,-0.0586,-0.0551,-0.0551,-0.0469,-0.0477,-0.0452,-0.045,-0.0475,-0.0476,-0.0476,-0.0476,0,-0.0466,-0.0516,-0.0643,-0.071,-0.076,-0.0858,-0.0934,-0.0987,-0.105,-0.1146,-0.1191,-0.1173,-0.1143,-0.0985,-0.0846,-0.0645,-0.0595,-0.0563,-0.0476,-0.0483,-0.0457,-0.0455,-0.0452,-0.0479,-0.0479,-0.0479,-0.0478,0,-0.0444,-0.0493,-0.0588,-0.0683,-0.072,-0.0786,-0.0887,-0.0952,-0.0978,-0.1059,-0.1066,-0.1072,-0.1014,-0.0887,-0.0785,-0.0686,-0.0589,-0.055,-0.0611,-0.0586,-0.046,-0.0456,-0.0484,-0.0483,-0.0482,-0.0481,-0.0481,0,-0.0421,-0.0483,-0.056,-0.0604,-0.0701,-0.0729,-0.0821,-0.0847,-0.0893,-0.0957,-0.0905,-0.0953,-0.0828,-0.0795,-0.0691,-0.06,-0.0631,-0.0492,-0.0468,-0.0484,-0.048,-0.0449,-0.0441,-0.0517,-0.0516,-0.0516,-0.0516,0,-0.0375,-0.0462,-0.0536,-0.0563,-0.0641,-0.0683,-0.0719,-0.0758,-0.08,-0.0816,-0.0843,-0.0807,-0.0802,-0.0729,-0.0635,-0.0606,-0.0587,-0.0534,-0.0463,-0.046,-0.0444,-0.0437,-0.0515,-0.0515,-0.0515,-0.0515,-0.0515,0,-0.0346,-0.0398,-0.0481,-0.0562,-0.0581,-0.0619,-0.0687,-0.0718,-0.0741,-0.0742,-0.0734,-0.07,-0.0684,-0.0616,-0.057,-0.056,-0.0512,-0.0471,-0.0471,-0.0402,-0.0348,-0.038,-0.0454,-0.0453,-0.0452,-0.0452,-0.0451,0,-0.03,-0.0378,-0.0393,-0.047,-0.0513,-0.052,-0.0559,-0.0582,-0.0589,-0.0616,-0.0577,-0.0583,-0.0519,-0.0514,-0.0495,-0.0446,-0.0448,-0.0429,-0.0382,-0.0382,-0.0344,-0.04,-0.0402,-0.0443,-0.0444,-0.0445,-0.0445,0,-0.0256,-0.0317,-0.0325,-0.0367,-0.0395,-0.0416,-0.0451,-0.0482,-0.0518,-0.0497,-0.0535,-0.05,-0.0472,-0.0457,-0.0417,-0.0405,-0.0435,-0.0358,-0.0356,-0.038,-0.0437,-0.0395,-0.0396,-0.0398,-0.0398,-0.0399,-0.044,0,-0.0244,-0.0279,-0.0294,-0.0334,-0.0349,-0.0375,-0.0381,-0.0397,-0.0395,-0.0393,-0.0405,-0.0362,-0.035,-0.0339,-0.0307,-0.033,-0.0316,-0.0276,-0.0241,-0.0287,-0.0298,-0.0303,-0.022,-0.0218,-0.0217,-0.0216,0,0,-0.0199,-0.0237,-0.0231,-0.0262,-0.0281,-0.0266,-0.0302,-0.0302,-0.03,-0.031,-0.0288,-0.0268,-0.0235,-0.0247,-0.0259,-0.0236,-0.023,-0.0228,-0.0262,-0.0268,-0.0272,-0.0286,-0.0292,-0.0213,-0.0213,-0.0212,-0.0212,0,-0.0192,-0.0199,-0.0225,-0.0236,-0.0251,-0.0249,-0.0259,-0.0258,-0.0262,-0.027,-0.0244,-0.0235,-0.0205,-0.0192,-0.018,-0.0217,-0.0182,-0.0207,-0.0259,-0.0251,-0.0258,-0.0264,-0.0279,-0.0286,-0.0209,-0.0209,-0.0209,0,-0.0169,-0.018,-0.0189,-0.0204,-0.0205,-0.0226,-0.0201,-0.0213,-0.0234,-0.018,-0.0197,-0.017,-0.0135,-0.0138,-0.0134,-0.0114,-0.0138,-0.0119,-0.0125,-0.0131,-0.0119,-0.0128,-0.0136,-0.0038,-0.0037,-0.0037,0,0,-0.0164,-0.0183,-0.0185,-0.0201,-0.0205,-0.0199,-0.0201,-0.0201,-0.0191,-0.0188,-0.0166,-0.0144,-0.013,-0.0119,-0.0099,-0.0094,-0.0078,-0.0101,-0.0109,-0.0116,-0.0126,-0.0116,-0.0124,-0.0036,-0.0036,-0.0036,0,0,-0.0156,-0.0168,-0.0171,-0.0188,-0.0191,-0.018,-0.0187,-0.0183,-0.0174,-0.0177,-0.0138,-0.013,-0.013,-0.0098,-0.0091,-0.0091,-0.0053,-0.0054,-0.0119,-0.0129,-0.0136,-0.0155,-0.0049,0,0,0,0,0,-0.0153,-0.0168,-0.0171,-0.0174,-0.0178,-0.0181,-0.018,-0.0173,-0.017,-0.0177,-0.0159,-0.0129,-0.0091,-0.0083,-0.0074,-0.0094,-0.0024,-0.0026,-0.0028,-0.0111,-0.0121,-0.013,0,0,0,0,0,0,-0.0154,-0.0158,-0.017,-0.0161,-0.0162,-0.018,-0.0164,-0.0162,-0.0169,-0.0169,-0.0135,-0.0128,-0.0099,-0.0085,-0.0077,-0.0097,-0.0052,-0.0025,-0.0026,-0.0028,-0.0114,-0.0123,-0.013,0,0,0,0,0,-0.0155,-0.0158,-0.0171,-0.016,-0.0161,-0.0155,-0.0164,-0.0162,-0.0168,-0.0129,-0.0123,-0.0166,-0.0099,-0.0091,-0.008,-0.0102,-0.0057,-0.0054,-0.0026,-0.0027,-0.0029,-0.0118,0,0,0,0,0,0,-0.0156,-0.0148,-0.0171,-0.017,-0.0161,-0.0154,-0.0154,-0.0162,-0.0127,-0.0123,-0.0156,-0.0156,-0.0099,-0.0093,-0.0087,-0.0107,-0.0061,-0.0058,-0.0056,-0.0027,-0.0028,-0.0029,0,0,0,0,0,0,-0.0147,-0.0148,-0.017,-0.0172,-0.0172,-0.0153,-0.0153,-0.0126,-0.0126,-0.0155,-0.0155,-0.0156,-0.01,-0.0094,-0.009,-0.0047,-0.0064,-0.0061,-0.0059,-0.0058,-0.0028,-0.0029,0,0,0,0,0,0,-0.0147,-0.0148,-0.0172,-0.0172,-0.0171,-0.0161,-0.0126,-0.0125,-0.015,-0.0156,-0.015,-0.015,-0.0101,-0.0096,-0.0091,-0.0051,-0.0048,-0.0064,-0.0062,-0.0061,-0.006,0,0,0,0,0,0,0,-0.0147,-0.0147,-0.0178,-0.0171,-0.0171,-0.0164,-0.0164,-0.0163,-0.015,-0.015,-0.015,-0.015,-0.0079,-0.0076,-0.0073,-0.0054,0,0,-0.0064,-0.0063,0,0,0,0,0,0,0,0,-0.0146,-0.0147,-0.0178,-0.0178,-0.0178,-0.0164,-0.0164,-0.0163,-0.015,-0.015,-0.015,-0.015,-0.0078,-0.0076,-0.0073,0,0,0,0,0,0,0,0,0,0,0,0,0,0,0,-0.0178,-0.0178,0,-0.0164,-0.0164,-0.0163,-0.015,-0.015,-0.015,-0.015,-0.0077,-0.0075,-0.0074,0,0,0,0,0,0,0,0,0,0,0,0,0,0,0,0,0,0,0,0,0,0,0,0,0,0,0,0,0,0,0,0,0,0,0,0,0,0,0,0,0,0,0,0,0,0,0,0,0,0,0,0,0,0,0,0,0,0,0,0,0,0,0,0,0,0,0,0,0]}]]]